Regional Weather Roundup
Issued by NWS Grand Forks, ND

Home | Current Version | Previous Version | Text Only | Print | Product List | Glossary Off
Versions: 1 2 3 4 5 6 7 8 9 10 11 12 13 14 15 16 17 18 19 20 21 22 23 24 25 26 27 28 29 30 31 32 33 34 35 36 37 38 39 40 41 42 43 44 45 46 47 48 49 50

693
ASUS43 KFGF 261531
RWRFGF
PRAIRIE TO PINES  WEATHER ROUNDUP
NATIONAL WEATHER SERVICE EASTERN NORTH DAKOTA/GRAND FORKS ND
1000 AM CDT THU MAY 26 2016

 **SATELLITE DATA USED TO AUGMENT SKY COVER AT AUTOMATED STATIONS**
 *****  WEATHER ACROSS EASTERN NORTH DAKOTA  *****

CITY           SKY/WX    TMP DP  RH WIND       PRES   REMARKS
GRAND FORKS    PTSUNNY   64  56  75 W14       29.72S
GRAND FRKS AFB PTSUNNY   63  57  82 W12       29.73S
GRAND FRKS NWS   N/A     64 N/A N/A W13         N/A
DEVILS LAKE    CLOUDY    57  54  88 NW7       29.76S
FARGO          CLOUDY    60  56  86 SW7       29.76S
WAHPETON ARPT  MOSUNNY   64  52  63 W15       29.79F
$$

 ***** WEATHER ACROSS CENTRAL AND WESTERN NORTH DAKOTA  *****

CITY           SKY/WX    TMP DP  RH WIND       PRES   REMARKS
BISMARCK       PTSUNNY   62  49  62 W3        29.83S
MINOT          CLOUDY    61  55  81 NW8       29.77S
JAMESTOWN      CLOUDY    57  53  86 W14       29.79R
MINOT AFB      LGT RAIN  55  55 100 NE10      29.77S
GARRISON         N/A     57  52  83 W9        29.80S
WILLISTON      CLOUDY    50  48  93 SW7       29.82R FOG
DICKINSON      SUNNY     57  45  64 NW10      29.83S
HETTINGER      SUNNY     60  47  61 W13       29.87F
$$

 *****  OTHER AIRPORT OBSERVATIONS IN OUR AREA  *****

CITY           SKY/WX    TMP DP  RH WIND       PRES   REMARKS
WALHALLA       FAIR      59  59 100 W9        29.69F
GRAFTON AIRPOR PTSUNNY   63  57  82 W16G23    29.72S
VALLEY CITY AR CLOUDY    59  59 100 W15       29.80S
CANDO          CLOUDY    59  55  88 NW8       29.78S
CAVALIER APRT  PTSUNNY   61  55  82 W14       29.69S
GWINNER        FAIR      64  54  68 W18       29.81S
SHEYENNE NWR     N/A     61  55  80 W12       29.95
ROLLA          PTSUNNY   57  57 100 NW16      29.77S
 ***** THE ABOVE OBSERVATIONS ARE NON NWS ARE NOT QUALITY
       CONTROLLED AND MAY MIS-REPORT RAIN FOR SNOW...
$$

  *****  WEATHER ACROSS NORTHERN MINNESOTA  *****

CITY           SKY/WX    TMP DP  RH WIND       PRES   REMARKS
FLAG ISLAND    CLOUDY    57  55  94 S17       29.69S
WARROAD        CLOUDY    61  57  88 S8        29.70F
ROSEAU         CLOUDY    63  55  77 SW12      29.70S
HALLOCK        CLOUDY    61  55  82 W14       29.68S
THF RVR FALLS  CLOUDY    63  54  72 W13       29.75S
BAUDETTE       PTSUNNY   61  55  81 S9        29.72F
WASKISH        PTSUNNY   63  57  82 SW6       29.75S
CROOKSTON      CLOUDY    63  57  82 W9        29.74S
STEPHEN NDAWN    N/A     63  57  82 W12         N/A
GREENBUSH NDAW   N/A     59  55  88 SW12        N/A
$$
  *****  WEATHER ACROSS CENTRAL AND WEST MINNESOTA  *****

CITY           SKY/WX    TMP DP  RH WIND       PRES   REMARKS
FOSSTON        PTSUNNY   63  55  77 SW8       29.75S
BEMIDJI        MOSUNNY   62  56  79 SW3       29.75F
PARK RAPIDS    SUNNY     66  56  70 SW5       29.76F
ELBOW LAKE     FAIR      64  55  71 W14G20    29.81R
WADENA         SUNNY     64  54  68 SW6       29.77F
DETROIT LAKES  SUNNY     63  55  77 SW9       29.78S
MOORHEAD       CLOUDY    57  55  94 SW7       29.78S FOG
FERGUS FALLS   CLOUDY    61  55  82 W9        29.77S
MORRIS MN      SUNNY     68  52  56 W15       29.81R
STAPLES        MOSUNNY   64  55  72 W3        29.78S
$$
  *****  WEATHER ELSEWHERE ACROSS MINNESOTA  *****

CITY           SKY/WX    TMP DP  RH WIND       PRES   REMARKS
DULUTH         FOG       52  51  97 E6        29.80F VSB 1/2
INTRNTL FALLS  CLOUDY    58  55  90 S3        29.76S
ELY            CLOUDY    61  55  82 S6        29.78F
CLOQUET        FOG       52  48  87 SE5       29.79F VSB 1/2
WHEATON        SUNNY     70  54  56 W9        29.82S
BRAINERD       SUNNY     65  58  78 CALM      29.78S
HIBBING        CLOUDY    53  53 100 S5        29.78F FOG
ALEXANDRIA     SUNNY     65  54  67 W8        29.80S
SAINT CLOUD    SUNNY     68  56  65 VRB7      29.78F
MINNEAPOLIS    MOSUNNY   69  57  65 SW12      29.81S
$$

  *****  WEATHER ACROSS SOUTH DAKOTA  *****

CITY           SKY/WX    TMP DP  RH WIND       PRES   REMARKS
SIOUX FALLS    MOSUNNY   70  53  54 N5        29.87S
BROOKINGS      SUNNY     66  50  56 NW8       29.86F
WATERTOWN      SUNNY     66  50  56 W12       29.85S
HURON          SUNNY     64  50  60 W3        29.86F
SISSETON         N/A     69  46  43 NW12      29.80S
ABERDEEN       SUNNY     65  52  62 SW9       29.85S
MITCHELL       SUNNY     67  52  58 E5        29.88S
PIERRE         SUNNY     65  51  60 SE3       29.85F
MOBRIDGE       SUNNY     63  50  62 S7        29.84S
RAPID CITY     MOSUNNY   62  42  47 N13G20    29.90F
$$

  *****  SOME WEATHER IN NEARBY STATES *****

CITY           SKY/WX    TMP DP  RH WIND       PRES   REMARKS
GLASGOW MT     LGT RAIN  50  48  93 W7        29.84F FOG
GREAT FALLS MT CLOUDY    51  45  79 SW7       29.97S
CHEYENNE WY    MOSUNNY   55  40  56 VRB3      30.00F
SCOTTSBLUFF NE MOSUNNY   59  40  49 W6        29.96S
OMAHA NE       MOSUNNY   72  62  71 CALM      29.87F
DES MOINES IA  MOSUNNY   71  61  70 SE8       29.89S
DAVENPORT IA   PTSUNNY   69  61  75 VRB3      29.92R
CHICAGO IL     CLOUDY    73  64  73 S9        29.88F
EAU CLAIRE WI  CLOUDY    66  60  81 SW12      29.82R
LA CROSSE WI   MOSUNNY   70  61  73 S10       29.84R
$$

  *****  SOME NATIONAL WEATHER *****

CITY           SKY/WX    TMP DP  RH WIND       PRES   REMARKS
LA GUARDIA NY  PTSUNNY   84  59  42 NE6       30.08F
RALEIGH NC     MOSUNNY   81  64  56 SW6       30.17F
ATLANTA GA     MOSUNNY   80  62  54 S5        30.20F
NEW ORLEANS LA PTSUNNY   83  70  64 SE8       30.11S
OKLAHOMA CITY  PTSUNNY   80  74  81 S20       29.86S
ALBUQUERQUE NM MOSUNNY   62  20  19 SW10      29.98F
SALT LAKE CITY MOSUNNY   58  43  57 CALM      30.02R
LOS ANGELES CA MOSUNNY   61  52  72 E5        30.08R
BOISE ID       SUNNY     55  42  61 CALM      30.03S
SEATTLE WA     CLOUDY    52  43  71 S7        30.20S
$$

*** WEATHER ACROSS MANITOBA...SASKATCHEWAN AND ONTARIO ***
                ***ONTARIO***

CITY           SKY/WX    TMP DP  RH WIND       PRES   REMARKS
GERALDTON      CLOUDY    54  46  76 NE7       29.89F
THUNDER BAY    DRIZZLE   55  54  94 E9        29.83F FOG
SIOUX LOOKOUT  LGT RAIN  57  55  94 VRB2      29.76R
TORONTO        CLOUDY    70  55  60 E10       29.99F
BIG TROUT LK   SUNNY     63  45  51 SE6       29.85F
PICKLE LAKE    CLOUDY    59  46  63 E9        29.84F
DRYDEN         CLOUDY    55  54  94 SE12      29.75F
KENORA         LGT RAIN  57  55  94 S10G17    29.71F
$$
                *** MANITOBA***

CITY           SKY/WX    TMP DP  RH WIND       PRES   REMARKS
BRANDON        LGT RAIN  59  54  82 N17       29.76S
DAUPHIN        CLOUDY    57  54  88 NW6       29.78F
ISLAND LAKE    PTSUNNY   63  55  77 CALM      29.79F
PILOT MOUND      N/A     55  52  88 NW12        N/A
THE PAS        MOSUNNY   66  48  52 N6        29.82F
THOMPSON       MOSUNNY   68  48  49 N8        29.81F
WINNIPEG       DRIZZLE   59  57  94 SE8       29.62S FOG
LYNN LAKE      CLOUDY    41  36  81 N13       29.95F
CHURCHILL      CLOUDY    34  32  93 NE15      29.95S FOG     WCI  24
GILLAM         PTSUNNY   59  50  72 N6        29.81S
$$
                ***SASKATCHEWAN***

CITY           SKY/WX    TMP DP  RH WIND       PRES   REMARKS
ESTEVAN        LGT RAIN  54  52  94 E10G17    29.80
KINDERSLEY     PTSUNNY   57  46  67 N5        29.91F
LLOYDMINSTER   MOSUNNY   63  48  59 CALM      29.89S
PRINCE ALBERT  MOSUNNY   66  50  55 NE6       29.86F
REGINA         LGT RAIN  54  52  94 NE14      29.86S
YORKTON        PTSUNNY   59  54  82 NW8       29.84S
N. BATTLEFORD  SUNNY     59  48  67 NW5       29.92F
LA RONGE       MOSUNNY   61  50  67 NE7       29.87S
SASKATOON      PTSUNNY   61  48  63 NE6       29.90S
SWIFT CURRENT  LGT RAIN  52  50  93 N9        29.90S
$$
NOTE: THESE ARE AUTOMATED STATIONS WITH LIMITED QUALITY CONTROL
      "FAIR" INDICATES FEW OR NO CLOUDS BELOW 12,000 FEET WITH NO
      SIGNIFICANT WEATHER AND/OR OBSTRUCTIONS TO VISIBILITY.
      SKY/WX - SKY CONDITION AND SIGNIFICANT WEATHER.
      TMP - AIR TEMPERATURE.    DP   - DEWPOINT TEMPERATURE.
      RH  - RELATIVE HUMIDITY.  PRES - PRESSURE.
      HX  - HEAT INDEX.         WCI  - WIND CHILL INDEX.
$




USA.gov is the U.S. government's official web portal to all federal, state and local government web resources and services.